Weather History for McGrath, AK

Change the Weather History Date:

Saturday, September 21, 2013

  Actual Average Record
Temperature  
Mean Temperature 32 °F 42 °F  
Max Temperature 39 °F 51 °F 67 °F (1995)
Min Temperature 24 °F 34 °F 17 °F (1941)
Degree Days  
Heating Degree Days 33 23  
Month to date heating degree days 415 382  
Since 1 July heating degree days 833 879  
Cooling Degree Days 0    
Month to date cooling degree days 0  
Year to date cooling degree days 78 16  
Moisture  
Dew Point 20 °F    
Average Humidity 0    
Maximum Humidity 0    
Minimum Humidity 0    
Precipitation  
Precipitation 0.00 in 0.08 in 1.73 in (2000)
Month to date precipitation 2.95 1.79  
Year to date precipitation 12.18 13.16  
Snow  
Snow 0.00 in 0.00 in 0.50 in (1980)
Month to date snowfall T 0.5  
Since 1 July snowfall T 0.5  
Since 1 September snowfall 0.0 0.5  
Snow Depth 0.00 in    
Sea Level Pressure  
Sea Level Pressure 29.23 in    
Wind  
Wind Speed 6 mph (North)    
Max Wind Speed 15 mph    
Max Gust Speed 20 mph    
Visibility 10 miles    
Events      
T = Trace of Precipitation, MM = Missing Value Source: NWS Daily Summary

Daily Weather History Graph

Daily Weather History Graph

Search for Another Location

Airport:

Trip Planner

Search our weather history database for the weather conditions in past years. The results will help you decide how hot, cold, wet, or windy it might be!

Date:

Astronomy

Sep. 21, 2013 Rise Set
Actual Time 8:04 AM AKDT 8:24 PM AKDT
Civil Twilight 7:18 AM AKDT 9:10 PM AKDT
Nautical Twilight 6:22 AM AKDT 10:06 PM AKDT
Astronomical Twilight 5:18 AM AKDT 11:08 PM AKDT
Moon 8:34 PM AKDT (9/21) 11:36 AM AKDT (9/21)
Length of Visible Light 13h 51m
Length of Day
12h 20m
Waning Gibbous, 93% of the Moon is Illuminated
Sep 21
Waning Gibbous
Sep 26
Last Quarter
Oct 4
New
Oct 11
First Quarter
Oct 18
Full

Hourly Weather History & Observations

Time (AKDT) Temp. Windchill Dew Point Humidity Pressure Visibility Wind Dir Wind Speed Gust Speed Precip Events Conditions
12:53 AM 32.0 °F 26.4 °F 21.0 °F 64% 29.18 in 10.0 mi NNE 5.8 mph - N/A   Overcast
1:53 AM 30.0 °F 24.1 °F 21.9 °F 72% 29.16 in 10.0 mi NNE 5.8 mph - N/A   Partly Cloudy
2:53 AM 28.9 °F 22.8 °F 21.9 °F 75% 29.16 in 10.0 mi NNE 5.8 mph - N/A   Partly Cloudy
3:53 AM 28.9 °F 21.9 °F 21.9 °F 75% 29.16 in 10.0 mi NNE 6.9 mph - N/A   Partly Cloudy
4:53 AM 28.0 °F 20.8 °F 21.9 °F 78% 29.16 in 10.0 mi NNE 6.9 mph - N/A   Partly Cloudy
5:53 AM 27.0 °F 19.5 °F 21.0 °F 78% 29.17 in 10.0 mi North 6.9 mph - N/A   Partly Cloudy
6:53 AM 26.1 °F 19.4 °F 19.9 °F 78% 29.18 in 10.0 mi North 5.8 mph - N/A   Partly Cloudy
7:53 AM 24.1 °F 19.7 °F 19.9 °F 84% 29.19 in 10.0 mi West 3.5 mph - N/A   Scattered Clouds
8:53 AM 25.0 °F 19.3 °F 19.9 °F 81% 29.21 in 10.0 mi West 4.6 mph - N/A   Clear
9:53 AM 27.0 °F 23.0 °F 21.0 °F 78% 29.22 in 10.0 mi WNW 3.5 mph - N/A   Scattered Clouds
10:53 AM 30.9 °F 26.2 °F 21.0 °F 67% 29.22 in 10.0 mi NNW 4.6 mph - N/A   Scattered Clouds
11:53 AM 33.1 °F 26.1 °F 21.9 °F 64% 29.22 in 10.0 mi North 8.1 mph - N/A   Scattered Clouds
12:53 PM 36.0 °F 29.0 °F 17.1 °F 46% 29.23 in 10.0 mi NNE 9.2 mph - N/A   Scattered Clouds
1:53 PM 37.9 °F 31.5 °F 18.0 °F 45% 29.23 in 10.0 mi ENE 9.2 mph 18.4 mph N/A   Scattered Clouds
2:53 PM 37.0 °F 31.6 °F 17.1 °F 44% 29.24 in 10.0 mi North 6.9 mph - N/A   Mostly Cloudy
3:53 PM 37.9 °F 30.9 °F 18.0 °F 45% 29.25 in 10.0 mi NE 10.4 mph 17.3 mph N/A   Mostly Cloudy
4:53 PM 37.0 °F 29.8 °F 18.0 °F 46% 29.26 in 10.0 mi NE 10.4 mph - N/A   Mostly Cloudy
5:53 PM 36.0 °F 30.3 °F 18.0 °F 48% 29.27 in 10.0 mi North 6.9 mph - N/A   Partly Cloudy
6:53 PM 35.1 °F 29.3 °F 19.0 °F 52% 29.28 in 10.0 mi North 6.9 mph - N/A   Clear
7:53 PM 35.1 °F 28.6 °F 18.0 °F 50% 29.30 in 10.0 mi North 8.1 mph - N/A   Overcast
8:53 PM 34.0 °F 31.0 °F 19.0 °F 54% 29.31 in 10.0 mi NNW 3.5 mph - N/A   Overcast
9:53 PM 34.0 °F 29.8 °F 18.0 °F 52% 29.32 in 10.0 mi North 4.6 mph - N/A   Overcast
10:53 PM 33.1 °F 30.0 °F 19.9 °F 59% 29.34 in 10.0 mi NNW 3.5 mph - N/A   Overcast
11:53 PM 33.1 °F - 19.0 °F 56% 29.34 in 10.0 mi Calm Calm - N/A   Overcast